GW0552 Weather Reports


time (UTC)temp
C
wind
direction
speed
KPH
gust
KPH
rain 1hr
cm
rain 24hr
cm
rain mn
cm
humidity
%
barometer
mb
20260904063448 23 63 0.0 0.0 0.00 0.00 0.00 99 1012.0
20260904062942 23 65 0.0 0.0 0.00 0.00 0.00 99 1012.1
20260904062439 23 67 0.0 0.0 0.00 0.00 0.00 99 1012.2
20260904061934 23 65 0.0 0.0 0.00 0.00 0.00 99 1012.2
20260904061431 23 63 0.0 0.0 0.00 0.00 0.00 99 1012.2
20260904060926 23 63 0.0 0.0 0.00 0.00 0.00 99 1012.4
20260904060422 23 63 0.0 0.0 0.00 0.00 0.00 99 1012.4
20260904055917 23 70 0.0 0.0 0.00 0.00 0.00 99 1012.4
20260904055413 23 71 0.0 0.0 0.00 0.00 0.00 99 1012.4
20260904054909 23 72 0.0 0.0 0.00 0.00 0.00 99 1012.4
20260904054404 23 73 0.0 0.0 0.00 0.00 0.00 99 1012.6
20260904053900 23 74 0.0 0.0 0.00 0.00 0.00 99 1012.7
20260904053358 23 62 0.0 0.0 0.00 0.00 0.00 99 1012.7
20260904052854 23 59 0.0 0.0 0.00 0.00 0.00 99 1012.6
20260904052351 23 45 0.0 0.0 0.00 0.00 0.00 99 1012.5
20260904051847 23 45 0.0 0.0 0.00 0.00 0.00 99 1012.6
20260904051342 23 60 0.0 0.0 0.00 0.00 0.00 99 1012.5
20260904050837 23 60 0.0 0.0 0.00 0.00 0.00 99 1012.4
20260904050334 23 60 0.0 0.0 0.00 0.00 0.00 99 1012.4
20260904045834 23 60 0.0 0.0 0.00 0.00 0.00 99 1012.6
20260904045329 23 60 0.0 0.0 0.00 0.00 0.00 99 1012.3
20260904044829 23 60 0.0 0.0 0.00 0.00 0.00 99 1012.2
20260904044325 23 61 0.0 0.0 0.00 0.00 0.00 99 1012.4
20260904043821 23 46 0.0 0.0 0.00 0.00 0.00 99 1012.3
20260904043317 23 46 0.0 0.0 0.00 0.00 0.00 99 1012.4
20260904042812 23 38 0.0 0.0 0.00 0.00 0.00 99 1012.3
20260904042309 23 24 0.0 0.0 0.00 0.00 0.00 99 1012.2
20260904041808 23 56 0.0 0.0 0.00 0.00 0.00 99 1012.0
20260904041305 23 57 0.0 0.0 0.00 0.00 0.00 99 1012.0
20260904040800 23 73 0.0 0.0 0.00 0.00 0.00 99 1012.1
20260904040255 23 71 0.0 0.0 0.00 0.00 0.00 99 1012.2
20260904035751 23 58 0.0 0.0 0.00 0.00 0.00 99 1012.3
20260904035247 23 74 0.0 0.0 0.00 0.00 0.00 99 1012.4
20260904034745 23 68 0.0 0.0 0.00 0.00 0.00 99 1012.4
20260904034242 24 71 0.0 0.0 0.00 0.00 0.00 99 1012.2
20260904033737 24 64 0.0 0.0 0.00 0.00 0.00 99 1012.3
20260904033234 24 64 0.0 0.0 0.00 0.00 0.00 99 1012.5
20260904032730 24 64 0.0 0.0 0.00 0.00 0.00 99 1012.3
20260904032228 24 67 0.0 0.0 0.00 0.00 0.00 99 1012.2
20260904031723 24 68 0.0 0.0 0.00 0.00 0.00 99 1012.4
20260904031219 24 59 0.0 0.0 0.00 0.00 0.00 99 1012.2
20260904030715 24 61 0.0 0.0 0.00 0.00 0.00 99 1012.3
20260904030209 24 66 0.0 0.0 0.00 0.00 0.00 99 1012.3
20260904025706 24 64 0.0 0.0 0.00 0.00 0.00 99 1012.5
20260904025201 24 68 0.0 0.0 0.00 0.00 0.00 99 1012.2
20260904024656 24 65 0.0 0.0 0.00 0.00 0.00 99 1012.3
20260904024152 25 64 0.0 0.0 0.00 0.00 0.00 99 1012.1
20260904023648 25 64 0.0 0.0 0.00 0.00 0.00 99 1012.4
20260904023144 25 63 0.0 0.0 0.00 0.00 0.00 98 1012.5
20260904022643 25 65 0.0 0.0 0.00 0.00 0.00 99 1012.4
20260904022140 25 68 0.0 0.0 0.00 0.00 0.00 98 1012.4
20260904021636 25 69 0.0 0.0 0.00 0.00 0.00 98 1012.5
20260904021130 25 64 0.0 0.0 0.00 0.00 0.00 98 1012.6
20260904020627 25 61 0.0 0.0 0.00 0.00 0.00 98 1012.7
20260904020121 25 65 0.0 0.0 0.00 0.00 0.00 98 1012.7
20260904015615 25 67 0.0 0.0 0.00 0.00 0.00 97 1012.6
20260904015114 25 67 0.0 0.0 0.00 0.00 0.00 97 1012.5
20260904014614 25 66 0.0 0.0 0.00 0.00 0.00 97 1012.5
20260904014109 25 69 0.0 0.0 0.00 0.00 0.00 97 1012.3
20260904013606 25 67 0.0 0.0 0.00 0.00 0.00 97 1012.5
20260904013102 25 67 0.0 0.0 0.00 0.00 0.00 96 1012.4
20260904012602 25 62 0.0 0.0 0.00 0.00 0.00 96 1012.3
20260904012056 25 61 0.0 0.0 0.00 0.00 0.00 96 1012.2
20260904011555 25 60 0.0 0.0 0.00 0.00 0.00 96 1012.3
20260904011051 26 66 0.0 0.0 0.00 0.00 0.00 96 1012.4
20260904010546 26 77 0.0 0.0 0.00 0.00 0.00 96 1011.9
20260904010043 26 67 0.0 0.0 0.00 0.00 0.00 95 1012.0
20260904005543 26 78 0.0 0.0 0.00 0.00 0.00 95 1012.1
20260904005038 26 73 0.0 0.0 0.00 0.00 0.00 94 1012.2
20260904004534 26 73 0.0 0.0 0.00 0.00 0.00 93 1012.1
20260904004028 26 73 0.0 0.0 0.00 0.00 0.00 93 1011.8
20260904003525 26 73 0.0 0.0 0.00 0.00 0.00 92 1012.0
20260904003020 26 73 0.0 0.0 0.00 0.00 0.00 92 1011.7
20260904002516 27 73 0.0 0.0 0.00 0.00 0.00 91 1011.7
20260904002015 27 73 0.0 0.0 0.00 0.00 0.00 91 1011.7
20260904001511 27 73 1.6 1.6 0.00 0.00 0.00 90 1011.6
20260904001010 27 73 1.6 1.6 0.00 0.00 0.00 90 1011.6
20260904000509 27 73 1.6 1.6 0.00 0.00 0.00 89 1011.6
20260904000006 27 73 1.6 1.6 0.00 0.00 0.00 88 1011.4
20260903235500 27 73 0.0 0.0 0.00 0.00 0.00 87 1011.7
20260903234955 28 73 0.0 0.0 0.00 0.00 0.00 86 1011.4
20260903234451 28 73 0.0 0.0 0.00 0.00 0.00 84 1011.6
20260903233947 28 72 0.0 0.0 0.00 0.00 0.00 84 1011.5
20260903233443 28 72 0.0 0.0 0.00 0.00 0.00 82 1011.4
20260903232937 28 72 0.0 0.0 0.00 0.00 0.00 82 1011.6
20260903232433 29 72 0.0 0.0 0.00 0.00 0.00 81 1011.3
20260903231932 29 72 0.0 0.0 0.00 0.00 0.00 80 1011.1
20260903231428 29 72 0.0 0.0 0.00 0.00 0.00 79 1011.3
20260903230922 30 72 0.0 0.0 0.00 0.00 0.00 78 1011.2
20260903230418 30 73 0.0 0.0 0.00 0.00 0.00 77 1011.2
20260903225914 30 70 1.6 1.6 0.00 0.00 0.00 75 1011.4
20260903225410 31 70 0.0 0.0 0.00 0.00 0.00 74 1011.0
20260903224906 31 70 1.6 1.6 0.00 0.00 0.00 72 1010.8
20260903224401 32 70 0.0 0.0 0.00 0.00 0.00 69 1011.2
20260903223857 32 71 0.0 0.0 0.00 0.00 0.00 68 1011.0
20260903223356 32 64 0.0 0.0 0.00 0.00 0.00 66 1011.0
20260903222851 32 62 0.0 0.0 0.00 0.00 0.00 65 1010.8
20260903222350 33 75 3.2 3.2 0.00 0.00 0.00 64 1010.9
20260903221845 33 78 3.2 3.2 0.00 0.00 0.00 63 1010.6
20260903221344 33 94 4.8 8.0 0.00 0.00 0.00 62 1010.7
20260903220842 33 86 3.2 3.2 0.00 0.00 0.00 62 1010.6
20260903220336 33 68 3.2 3.2 0.00 0.00 0.00 64 1010.7
20260903215835 33 69 1.6 3.2 0.00 0.00 0.00 63 1010.6
20260903215332 33 95 3.2 3.2 0.00 0.00 0.00 64 1010.6
20260903214829 33 114 0.0 1.6 0.00 0.00 0.00 63 1010.8
20260903214326 33 82 6.4 8.0 0.00 0.00 0.00 60 1010.7
20260903213820 33 77 8.0 9.7 0.00 0.00 0.00 60 1010.5
20260903213315 34 91 3.2 9.7 0.00 0.00 0.00 61 1010.7
20260903212812 33 72 4.8 4.8 0.00 0.00 0.00 60 1010.7
20260903212308 34 93 4.8 4.8 0.00 0.00 0.00 61 1010.7
20260903211807 34 107 8.0 11.3 0.00 0.00 0.00 60 1011.0
20260903211303 34 154 6.4 8.0 0.00 0.00 0.00 61 1010.9
20260903210759 34 17 6.4 9.7 0.00 0.00 0.00 58 1010.9
20260903210254 35 81 4.8 4.8 0.00 0.00 0.00 58 1011.2
20260903205754 35 98 8.0 9.7 0.00 0.00 0.00 58 1011.4
20260903205253 35 120 4.8 8.0 0.00 0.00 0.00 57 1011.5
20260903204749 35 78 8.0 9.7 0.00 0.00 0.00 58 1011.4
20260903204245 35 75 1.6 1.6 0.00 0.00 0.00 56 1011.5
20260903203740 35 65 4.8 4.8 0.00 0.00 0.00 55 1011.6
20260903203236 35 74 3.2 4.8 0.00 0.00 0.00 54 1011.5
20260903202729 35 75 1.6 3.2 0.00 0.00 0.00 57 1011.6
20260903202226 35 40 4.8 4.8 0.00 0.00 0.00 54 1011.6
20260903201725 35 71 1.6 3.2 0.00 0.00 0.00 56 1011.8
20260903201221 35 82 1.6 3.2 0.00 0.00 0.00 55 1011.9
20260903200719 35 71 6.4 8.0 0.00 0.00 0.00 54 1011.9
20260903200215 34 62 8.0 9.7 0.00 0.00 0.00 55 1012.2
20260903195710 34 97 4.8 8.0 0.00 0.00 0.00 55 1011.8
20260903195206 34 75 6.4 8.0 0.00 0.00 0.00 57 1011.9
20260903194706 34 77 8.0 9.7 0.00 0.00 0.00 56 1012.1
20260903194202 34 59 11.3 14.5 0.00 0.00 0.00 54 1012.2
20260903193657 34 95 4.8 4.8 0.00 0.00 0.00 55 1012.1
20260903193152 35 76 0.0 0.0 0.00 0.00 0.00 60 1012.2
20260903192648 34 69 3.2 4.8 0.00 0.00 0.00 59 1012.3
20260903192143 34 136 4.8 8.0 0.00 0.00 0.00 58 1012.4
20260903191639 34 78 1.6 1.6 0.00 0.00 0.00 58 1012.7
20260903191139 34 93 4.8 8.0 0.00 0.00 0.00 59 1012.6
20260903190639 33 90 3.2 4.8 0.00 0.00 0.00 60 1012.4
20260903190133 33 43 8.0 11.3 0.00 0.00 0.00 59 1012.7
20260903185628 32 65 8.0 11.3 0.00 0.00 0.00 61 1012.6
20260903185123 31 74 6.4 9.7 0.00 0.00 0.00 69 1012.9
20260903184620 32 70 1.6 3.2 0.00 0.00 0.00 74 1012.9
20260903184116 32 35 0.0 0.0 0.00 0.00 0.00 72 1012.8
20260903183614 33 34 0.0 1.6 0.00 0.00 0.00 73 1012.7
20260903183109 33 38 0.0 0.0 0.00 0.00 0.00 70 1012.7
20260903182608 34 60 0.0 1.6 0.00 0.00 0.00 61 1013.0
20260903182105 35 63 4.8 4.8 0.00 0.00 0.00 60 1012.8
20260903181603 35 106 0.0 1.6 0.00 0.00 0.00 62 1012.8
20260903181057 34 67 0.0 0.0 0.00 0.00 0.00 60 1012.9
20260903180553 34 60 0.0 0.0 0.00 0.00 0.00 59 1012.9
20260903180047 33 48 0.0 0.0 0.00 0.00 0.00 62 1012.9
20260903175546 33 49 0.0 0.0 0.00 0.00 0.00 62 1012.9
20260903175046 35 284 3.2 4.8 0.00 0.00 0.00 60 1013.1
20260903174540 36 311 3.2 4.8 0.00 0.00 0.00 58 1013.0
20260903174035 36 313 0.0 0.0 0.00 0.00 0.00 54 1013.0
20260903173530 36 61 0.0 0.0 0.00 0.00 0.00 52 1013.2
20260903173027 36 73 0.0 0.0 0.00 0.00 0.00 51 1013.1
20260903172521 35 71 3.2 3.2 0.00 0.00 0.00 54 1013.3
20260903172017 35 42 0.0 0.0 0.00 0.00 0.00 54 1013.2
20260903171511 35 53 1.6 1.6 0.00 0.00 0.00 55 1013.5
20260903171006 35 57 0.0 0.0 0.00 0.00 0.00 57 1013.5
20260903170500 35 72 3.2 3.2 0.00 0.00 0.00 56 1013.5
20260903170000 35 77 3.2 4.8 0.00 0.00 0.00 60 1013.7
20260903165453 35 63 1.6 1.6 0.00 0.00 0.00 58 1013.7
20260903164948 35 81 8.0 9.7 0.00 0.00 0.00 55 1013.5
20260903164438 35 22 0.0 0.0 0.00 0.00 0.00 58 1013.9
20260903163937 34 37 1.6 1.6 0.00 0.00 0.00 58 1013.6
20260903163433 35 357 1.6 3.2 0.00 0.00 0.00 55 1013.9
20260903162930 34 67 0.0 0.0 0.00 0.00 0.00 64 1013.8
20260903162426 34 358 3.2 3.2 0.00 0.00 0.00 60 1014.0
20260903161921 34 63 1.6 1.6 0.00 0.00 0.00 62 1014.0
20260903161416 33 26 1.6 3.2 0.00 0.00 0.00 63 1014.0
20260903160912 33 46 1.6 4.8 0.00 0.00 0.00 64 1013.9
20260903160411 33 353 6.4 8.0 0.00 0.00 0.00 63 1014.0
20260903155910 33 65 0.0 0.0 0.00 0.00 0.00 64 1014.2
20260903155405 33 22 3.2 3.2 0.00 0.00 0.00 66 1013.9
20260903154901 33 34 0.0 0.0 0.00 0.00 0.00 66 1014.0
20260903154357 33 66 0.0 0.0 0.00 0.00 0.00 68 1014.0
20260903153857 33 52 0.0 0.0 0.00 0.00 0.00 68 1014.1
20260903153352 33 66 1.6 1.6 0.00 0.00 0.00 66 1014.1
20260903152849 32 38 0.0 1.6 0.00 0.00 0.00 68 1014.0
20260903152344 32 38 0.0 1.6 0.00 0.00 0.00 68 1014.0
20260903151839 32 42 0.0 1.6 0.00 0.00 0.00 72 1014.3
20260903151335 32 59 0.0 0.0 0.00 0.00 0.00 74 1014.3
20260903150835 31 58 0.0 0.0 0.00 0.00 0.00 76 1014.2
20260903150329 31 328 4.8 4.8 0.00 0.00 0.00 75 1014.4
20260903145824 31 55 3.2 3.2 0.00 0.00 0.00 75 1014.2
20260903145319 30 40 1.6 1.6 0.00 0.00 0.00 79 1014.2
20260903144819 30 92 0.0 1.6 0.00 0.00 0.00 81 1014.1
20260903144314 30 30 1.6 1.6 0.00 0.00 0.00 77 1014.1
20260903143809 31 45 1.6 1.6 0.00 0.00 0.00 77 1014.4
20260903143306 31 49 0.0 0.0 0.00 0.00 0.00 84 1014.3
20260903142802 30 67 0.0 0.0 0.00 0.00 0.00 84 1014.5
20260903142257 30 85 3.2 3.2 0.00 0.00 0.00 80 1014.3
20260903141753 30 59 0.0 0.0 0.00 0.00 0.00 88 1014.2
20260903141249 28 62 3.2 3.2 0.00 0.00 0.00 85 1014.4
20260903140749 28 31 3.2 3.2 0.00 0.00 0.00 85 1014.2
20260903140244 28 67 3.2 4.8 0.00 0.00 0.00 87 1014.2
20260903135740 28 66 3.2 3.2 0.00 0.00 0.00 87 1014.3
20260903135235 27 50 1.6 1.6 0.00 0.00 0.00 89 1014.3
20260903134733 27 52 1.6 3.2 0.00 0.00 0.00 90 1014.2
20260903134230 27 32 4.8 4.8 0.00 0.00 0.00 92 1014.3
20260903133727 26 47 1.6 1.6 0.00 0.00 0.00 94 1014.2
20260903133224 26 63 3.2 3.2 0.00 0.00 0.00 95 1014.2
20260903132724 26 42 1.6 1.6 0.00 0.00 0.00 98 1014.3
20260903132224 25 60 0.0 0.0 0.00 0.00 0.00 99 1014.4
20260903131718 25 61 0.0 0.0 0.00 0.00 0.00 99 1014.3
20260903131213 25 62 0.0 0.0 0.00 0.00 0.00 99 1014.5
20260903130708 24 53 0.0 0.0 0.00 0.00 0.00 99 1014.5
20260903130202 23 54 0.0 0.0 0.00 0.00 0.00 99 1014.5
20260903125701 23 53 0.0 0.0 0.00 0.00 0.00 99 1014.5
20260903125156 23 53 0.0 0.0 0.00 0.00 0.00 99 1014.6
20260903124655 22 58 0.0 0.0 0.00 0.00 0.00 99 1014.9
20260903124156 22 59 0.0 0.0 0.00 0.00 0.00 99 1014.9
20260903123655 22 57 0.0 0.0 0.00 0.00 0.00 99 1014.6
20260903123154 22 58 0.0 0.0 0.00 0.00 0.00 99 1014.8
20260903122654 22 59 0.0 0.0 0.00 0.00 0.00 99 1014.6
20260903122148 21 62 0.0 0.0 0.00 0.00 0.00 99 1014.8
20260903121647 21 62 0.0 0.0 0.00 0.00 0.00 99 1014.6
20260903121144 21 62 0.0 0.0 0.00 0.00 0.00 99 1014.7
20260903120642 21 62 0.0 0.0 0.00 0.00 0.00 99 1014.8
20260903120137 21 62 0.0 0.0 0.00 0.00 0.00 99 1014.7
20260903115635 21 62 0.0 0.0 0.00 0.00 0.00 99 1014.8
20260903115131 21 62 0.0 0.0 0.00 0.00 0.00 99 1014.7
20260903114626 21 62 0.0 0.0 0.00 0.00 0.00 99 1014.7
20260903114121 21 62 0.0 0.0 0.00 0.00 0.00 99 1014.5
20260903113616 21 61 0.0 0.0 0.00 0.00 0.00 99 1014.6
20260903113113 21 62 0.0 0.0 0.00 0.00 0.00 99 1014.6
20260903112609 21 61 0.0 0.0 0.00 0.00 0.00 99 1014.4
20260903112108 21 61 0.0 0.0 0.00 0.00 0.00 99 1014.2
20260903111607 21 62 0.0 0.0 0.00 0.00 0.00 99 1014.4
20260903111103 21 62 0.0 0.0 0.00 0.00 0.00 99 1014.2
20260903110559 21 62 0.0 0.0 0.00 0.00 0.00 99 1014.2
20260903110054 21 62 0.0 0.0 0.00 0.00 0.00 99 1014.1
20260903105549 21 62 0.0 0.0 0.00 0.00 0.00 99 1014.0
20260903105044 21 62 0.0 0.0 0.00 0.00 0.00 99 1014.1
20260903104543 21 62 0.0 0.0 0.00 0.00 0.00 99 1013.9
20260903104039 21 62 0.0 0.0 0.00 0.00 0.00 99 1013.9
20260903103535 21 65 0.0 0.0 0.00 0.00 0.00 99 1013.8
20260903103031 21 63 0.0 0.0 0.00 0.00 0.00 99 1013.9
20260903102526 21 61 0.0 0.0 0.00 0.00 0.00 99 1013.6
20260903102025 21 61 0.0 0.0 0.00 0.00 0.00 99 1013.6
20260903101520 21 61 0.0 0.0 0.00 0.00 0.00 99 1013.6
20260903101016 21 61 0.0 0.0 0.00 0.00 0.00 99 1013.8
20260903100511 21 61 0.0 0.0 0.00 0.00 0.00 99 1013.9
20260903100009 21 60 0.0 0.0 0.00 0.00 0.00 99 1013.8
20260903095502 21 59 0.0 0.0 0.00 0.00 0.00 99 1013.6
20260903094957 21 59 0.0 0.0 0.00 0.00 0.00 99 1013.7
20260903094456 21 59 0.0 0.0 0.00 0.00 0.00 99 1013.6
20260903093953 21 61 0.0 0.0 0.00 0.00 0.00 99 1013.7
20260903093448 21 61 0.0 0.0 0.00 0.00 0.00 99 1013.6
20260903092944 21 61 0.0 0.0 0.00 0.00 0.00 99 1013.5
20260903092443 21 64 0.0 0.0 0.00 0.00 0.00 99 1013.7
20260903091942 21 62 0.0 0.0 0.00 0.00 0.00 99 1013.8
20260903091440 21 61 0.0 0.0 0.00 0.00 0.00 99 1013.8
20260903090936 21 61 0.0 0.0 0.00 0.00 0.00 99 1013.7
20260903090432 21 61 0.0 0.0 0.00 0.00 0.00 99 1013.8
20260903085930 21 61 0.0 0.0 0.00 0.00 0.00 99 1013.8
20260903085428 21 62 0.0 0.0 0.00 0.00 0.00 99 1013.8
20260903084928 21 61 0.0 0.0 0.00 0.00 0.00 99 1013.6
20260903084427 21 62 0.0 0.0 0.00 0.00 0.00 99 1013.6
20260903083922 21 57 0.0 0.0 0.00 0.00 0.00 99 1013.7
20260903083419 21 57 0.0 0.0 0.00 0.00 0.00 99 1013.4
20260903082917 21 53 0.0 0.0 0.00 0.00 0.00 99 1013.6
20260903082412 21 62 0.0 0.0 0.00 0.00 0.00 99 1013.6
20260903081908 22 72 1.6 3.2 0.00 0.00 0.00 99 1013.6
20260903081403 21 70 1.6 1.6 0.00 0.00 0.00 99 1013.6
20260903080859 21 65 1.6 1.6 0.00 0.00 0.00 99 1013.5
20260903080355 22 72 1.6 3.2 0.00 0.00 0.00 99 1013.5
20260903075849 21 70 0.0 0.0 0.00 0.00 0.00 99 1013.9
20260903075345 21 65 0.0 0.0 0.00 0.00 0.00 99 1013.5
20260903074844 22 63 0.0 0.0 0.00 0.00 0.00 99 1013.6
20260903074339 21 63 0.0 0.0 0.00 0.00 0.00 99 1013.6
20260903073835 21 63 0.0 0.0 0.00 0.00 0.00 99 1013.5
20260903073330 22 63 0.0 0.0 0.00 0.00 0.00 99 1013.7
20260903072825 22 63 0.0 0.0 0.00 0.00 0.00 99 1013.4
20260903072321 22 63 0.0 0.0 0.00 0.00 0.00 99 1013.5
20260903071818 22 63 0.0 0.0 0.00 0.00 0.00 99 1013.5
20260903071314 22 63 0.0 0.0 0.00 0.00 0.00 99 1013.3
20260903070808 22 63 0.0 0.0 0.00 0.00 0.00 99 1013.6
20260903070304 22 66 0.0 0.0 0.00 0.00 0.00 99 1013.4
20260903065759 22 65 0.0 0.0 0.00 0.00 0.00 99 1013.5
20260903065258 22 63 0.0 0.0 0.00 0.00 0.00 99 1013.6
20260903064757 22 61 0.0 0.0 0.00 0.00 0.00 99 1013.6
20260903064253 22 59 0.0 0.0 0.00 0.00 0.00 99 1013.7